Погода в Злихе

Погода в Злихе : погода сейчас, прогноз погоды и архив. Всё, что Вы хотите узнать о погоде в Злихе!

Поиск расширенной информации на нашем сайте:

Другие новости

Новости СМИ2

Главная страница сайта

Новости сайта

03.07.2017

Напоминаем, что на нашем специализированном сайте Метеоцентр.Азия вы можете получить высокодетализированные автоматические прогнозы погоды по пунктам России, СНГ и мира в авиационном формате (включающие направление и скорость ветра, видимость, явления погоды, количество и форму облачности, нижнюю и верхнюю границу облачности).


Погода в Злихе - сегодня

Время (UTC), дата Ветер
(°,м/с) 
Видим.   Явления Облачность Т
(°С)
Тd
(°С)
f(%) Тe
(°С)
Pmin
(гПа)
dP
(гПа)
Po
(мм)
O2
(г/м3)
Тmin Tmax R s Состояние
почвы
18 15.10.17 тихо ()   н/о    ясно 
+6.8 -2.5 51 +7  1018.7  -0.8  750  295    +21.1       
21 15.10.17 тихо ()   н/о    ясно 
+4.3 -2.1 63 +4  1017.1  -0.5  750  298           
00 16.10.17 050 (СВ) н/о    ясно 
+3.3 -1.8 69 +3  1015.7  -1.4  749  298           
03 16.10.17 050 (СВ) 20000 м    10/0 средняя, верхняя 
[Ac lent|Ci]
+5 -2.9 57 +6  1014  -1.5  748  296           
06 16.10.17 090 (В) 20000 м    3/0 верхняя 
[Ci fib]
+14.9 -1.2 33 +16  1013.4  748  286  +3         
09 16.10.17 180 (Ю) 20000 м    8/8 1000 м 
[Sc diur, vesp]
+21 +1.5 27 +21  1011.8  -1.3  747  279           
12 16.10.17 180 (Ю) 20000 м    8/8 600 м кучево-дожд., средняя 
[Cb cap|Ac cuf]
+23.2 -0.9 20 +23  1011.1  -0.6  746  277           
15 16.10.17 тихо ()   н/о    3/3 600 м кучево-дожд. 
[Cb cap]
+15.2 +1.5 39 +15  1011.5  746  285    +24       
18 16.10.17 тихо ()   н/о  {ливн. осадки}  8/8 600 м кучево-дожд. 
[Cb cap]
+12.3 +10.4 88 +14  1011.6  746  286          покрыта
льдом 
21 16.10.17 270 (З) н/о    3/3 600 м кучево-дожд. 
[Cb cap]
+10.3 +8 86 +11  1011.5  -0.3  746  288           
00 17.10.17 тихо ()   н/о    6/6 600 м кучево-дожд. 
[Cb cap]
+8 +6.2 88 +8  1011.9  0.3  746  291           
03 17.10.17 тихо ()   20000 м    10/10 600 м кучево-дожд. 
[Cb cap]
+6.6 +5.7 94 +7  1012.5  0.5  747  293         
06 17.10.17 тихо ()   20000 м    10/10 600 м 
[Sc]
+13.7 +8.5 71 +14  1011.2  0.1  747  285  +5       
09 17.10.17 070 (В) 20000 м    10/10 600 м 
[Sc]
+19.4 +7.3 45 +20  1008.6  -3.3  744  279           
12 17.10.17 110 (В) 11  20000 м    10/10 600 м 
[Sc]
+21.3 +4.8 34 +21  1005.6  -2.8  742  277           
15 17.10.17 110 (В) 11  н/о    10/10 600 м 
[Sc]
+20 +4.8 37 +20  1001.8  -3.7  695  260    +22.1       
18 17.10.17 270 (З) 12  н/о  слаб. дождь  10/10 600 м 
[Ns]
+12.9 +9.2 78 +11  1004  1.6  741  283    +22.1       
21 17.10.17 250 (З) 18-20{20}  н/о  слаб. дождь  10/10 300 м 
[Ns]
+8.5 +5.6 82 +4  1009.4  5.1  745  290           
00 18.10.17 250 (З) 18-20{20}  н/о  {дождь}  3/0 средняя 
[Ac lent]
+7.3 +2.5 72 +3  1012.6  3.1  747  293           
03 18.10.17 200 (Ю) 8{20}  20000 м    9/9 600 м кучево-дожд. 
[Cb cap]
+6.3 +4.7 89 +3  1015.8  3.1  749  294  +6       
06 18.10.17 200 (Ю) 20000 м  {дождь}  10/10 600 м 
[Cu Sc]
+7.9 +5.7 86 +5  1017  1.3  750  293  +0.6       
09 18.10.17 200 (Ю) 20000 м    8/8 600 м кучево-дожд. 
[Cb cap]
+9.2 +7.1 87 +7  1016  -1  749  291           
12 18.10.17 230 (ЮЗ) 16-18{18}  10 км  в посл. час ливневой дождь  10/10 300 м кучево-дожд. 
[Cb cap]
+9.1 +6.5 84 +5  1016.7  0.7  750  291           
15 18.10.17 230 (ЮЗ) 7{18}  н/о    4/4 600 м 
[Sc]
+7.2 +5 86 +5  1018.9  2.1  752  294    +10.5       
18 18.10.17 230 (ЮЗ) н/о    8/0 средняя, верхняя 
[As op|Ci fib]
+6.3 +4.5 88 +4  1020.5  1.5  753  296    +10.5     
Время (UTC), дата Ветер
(°,м/с) 
Видим.   Явления Облачность Т
(°С)
Тd
(°С)
f(%) Тe
(°С)
Pmin
(гПа)
dP
(гПа)
Po
(мм)
O2
(г/м3)
Тmin Tmax R s Состояние
почвы

Для получения пояснительной информации подведите курсор к названию столбца.

ПОГОДА в Злихе - архив

Всё, что Вы хотите узнать о погоде в Злихе - удобно и подробно!

Выберите нужную дату (начиная с 1 января 2015* года) и нажмите кнопку "Найти".
Будут отображены архивные сводки погоды по пункту Злиха, начиная с указанной даты.


Отображать данные в формате CSV (для использования в таблицах Excel)


Внимание! Наш архив погоды предназначен исключительно для личного некоммерческого использования в познавательных целях. Если Вам необходимы официальные справки о состоянии погоды (для производственных, юридических, коммерческих и т.п. целей), обращайтесь в органы Росгидромета.

*Примечание: данная дата относится к архиву по метеостанциям СССР (Россия, СНГ, Балтия).
Архив по метеостанциям Зарубежной Европы и Азии (кроме Китая) хранится 10 дней, по другим регионам земного шара (Китай, Африка, Америка, Австралия, Океания) - 1 день.

Злиха - район местоположения метеостанции


Название, широта, долгота, высота метеостанции:
Злиха 45.2°ш. 67.1°д. 138 м над ур. моря [Казахстан]

Дополнительная информация

В oтличие oт бoльшинства пoгoдных сайтoв мы публикуем пoдрoбную метеoинфoрмацию в детальнoм прoфессиoнальнoм фoрмате.

Характеристики температуры и влажнoсти вoздуха измеряются на высoте 2 м в тени вдали oт зданий и деревьев.
Скoрoсть ветра измеряется на высoте 10 м (на урoвне рoста челoвека скoрoсть ветра ниже в 1.5-2 раза). Если метеoстанция нахoдится в гoрoде или в лесу, тo скoрoсть ветра занижена на 2-4 м/с пo сравнению с oткрытым местoм. Скoрoсть ветра над акватoриями крупных рек и oзёр, а также на вершинах хoлмoв на 2-5 м/с выше, чем в oбычных услoвиях.
Атмoсфернoе давление в разных тoчках местнoсти мoжет значительнo oтличаться oт давления на метеoстанции, в зависимoсти oт услoвий рельефа (при пoдъёме на 10 м давление пoнижается примернo на 1 мм рт.ст.).